N3WXO-1 Weather Reports


time (UTC)temp
F
wind
direction
speed
knots
gust
knots
rain 1hr
in
rain 24hr
in
rain mn
in
humidity
%
barometer
mb
20260506140024 61 185 0.0 7.8 0.06 0.07 0.07 92 1008.8
20260506135515 61 187 0.9 7.8 0.05 0.06 0.06 92 1008.7
20260506135026 61 220 0.0 8.7 0.05 0.06 0.06 91 1008.7
20260506134514 62 199 0.9 4.3 0.05 0.06 0.06 91 1008.5
20260506134023 62 236 0.9 5.2 0.04 0.05 0.05 91 1008.7
20260506133517 62 204 0.0 6.1 0.04 0.05 0.05 90 1008.8
20260506133020 62 204 0.9 6.1 0.04 0.04 0.04 90 1008.9
20260506132524 62 220 1.7 6.1 0.04 0.04 0.04 89 1008.9
20260506132015 62 234 0.9 6.1 0.03 0.03 0.03 88 1008.9
20260506131525 62 220 0.9 7.8 0.03 0.03 0.03 88 1008.9
20260506131032 62 206 2.6 8.7 0.02 0.02 0.02 87 1008.9
20260506130518 63 187 0.9 7.0 0.02 0.02 0.02 87 1009.0
20260506130023 63 207 0.0 4.3 0.01 0.01 0.01 87 1009.0
20260506125514 63 187 0.0 5.2 0.01 0.01 0.01 86 1009.0
20260506125025 63 200 0.9 7.0 0.01 0.01 0.01 85 1009.0
20260506124521 63 197 1.7 7.0 0.01 0.01 0.01 85 1008.9
20260506124014 64 226 0.0 3.5 0.01 0.01 0.01 85 1008.9
20260506123519 64 226 0.9 7.8 0.01 0.01 0.01 84 1008.8
20260506123026 64 220 0.0 7.8 0.00 0.00 0.00 84 1008.8
20260506122518 64 213 2.6 7.8 0.00 0.00 0.00 83 1008.8
20260506122026 64 227 1.7 6.1 0.00 0.00 0.00 84 1008.8
20260506121532 63 234 0.0 6.1 0.00 0.00 0.00 84 1008.7
20260506121024 63 237 1.7 6.1 0.00 0.00 0.00 83 1008.7
20260506120523 63 227 0.9 4.3 0.00 0.00 0.00 83 1008.6
20260506120017 63 211 0.0 0.9 0.00 0.00 0.00 84 1008.7
20260506115533 63 214 0.0 4.3 0.00 0.00 0.00 84 1008.7
20260506115026 63 215 0.0 4.3 0.00 0.00 0.00 83 1008.7
20260506114513 63 205 0.0 3.5 0.00 0.00 0.00 82 1008.7
20260506114022 64 205 0.0 4.3 0.00 0.00 0.00 82 1008.8
20260506113532 63 213 0.0 4.3 0.00 0.00 0.00 81 1008.7
20260506113025 63 220 0.0 4.3 0.00 0.00 0.00 81 1008.8
20260506112519 63 221 0.9 4.3 0.00 0.00 0.00 80 1008.7
20260506112024 63 213 0.0 3.5 0.00 0.00 0.00 80 1008.8
20260506111516 63 213 0.0 3.5 0.00 0.00 0.00 80 1008.8
20260506111025 63 206 0.0 3.5 0.00 0.00 0.00 80 1008.7
20260506110533 63 205 0.0 0.0 0.00 0.00 0.00 80 1008.6
20260506110024 63 205 0.0 0.0 0.00 0.00 0.00 80 1008.5
20260506105533 63 205 0.0 2.6 0.00 0.00 0.00 80 1008.4
20260506105021 62 205 0.0 2.6 0.00 0.00 0.00 80 1008.4
20260506104515 62 206 0.0 4.3 0.00 0.00 0.00 80 1008.2
20260506104023 62 206 0.0 4.3 0.00 0.00 0.00 81 1008.2
20260506103537 61 182 0.0 1.7 0.00 0.00 0.00 81 1008.1
20260506103024 61 180 0.0 0.9 0.00 0.00 0.00 81 1008.1
20260506102529 61 180 0.0 0.9 0.00 0.00 0.00 81 1008.0
20260506102016 61 178 0.0 4.3 0.00 0.00 0.00 81 1008.0
20260506101525 61 178 0.0 4.3 0.00 0.00 0.00 80 1007.9
20260506101013 61 224 0.0 0.0 0.00 0.00 0.00 80 1008.0
20260506100519 61 224 0.0 0.0 0.00 0.00 0.00 79 1008.0
20260506100025 61 224 0.0 0.0 0.00 0.00 0.00 79 1008.0
20260506095514 61 224 0.0 0.0 0.00 0.00 0.00 79 1008.0
20260506095023 61 224 0.0 0.0 0.00 0.00 0.00 78 1008.1
20260506094515 61 224 0.0 0.0 0.00 0.00 0.00 78 1008.1
20260506094026 61 224 0.0 0.0 0.00 0.00 0.00 78 1008.2
20260506093532 62 224 0.0 0.0 0.00 0.00 0.00 78 1008.2
20260506093018 62 224 0.0 0.0 0.00 0.00 0.00 77 1008.1
20260506092525 62 224 0.0 0.0 0.00 0.00 0.00 77 1008.1
20260506092033 62 224 0.0 0.0 0.00 0.00 0.00 75 1008.1
20260506091520 62 224 0.0 0.0 0.00 0.00 0.00 74 1008.2
20260506091024 63 224 0.0 0.0 0.00 0.00 0.00 73 1008.2
20260506090513 63 224 0.0 0.0 0.00 0.00 0.00 73 1008.2
20260506090030 63 224 0.0 0.0 0.00 0.08 0.00 73 1008.2
20260506085515 63 224 0.0 0.0 0.00 0.08 0.00 73 1008.1
20260506085023 63 224 0.0 0.0 0.00 0.08 0.00 72 1008.2
20260506084534 63 224 0.0 3.5 0.00 0.08 0.00 72 1008.2
20260506084022 64 225 0.0 0.9 0.00 0.08 0.00 71 1008.2
20260506083526 64 225 0.0 0.0 0.00 0.08 0.00 71 1008.3
20260506083033 64 225 0.0 4.3 0.00 0.08 0.00 71 1008.3
20260506082518 64 225 0.9 4.3 0.00 0.08 0.00 71 1008.3
20260506082028 64 227 0.0 4.3 0.00 0.08 0.00 71 1008.3
20260506081520 64 226 0.0 0.9 0.00 0.08 0.00 71 1008.3
20260506081025 64 226 0.0 0.9 0.00 0.08 0.00 71 1008.3
20260506080531 64 226 0.0 0.9 0.00 0.08 0.00 70 1008.3
20260506073528 65 234 0.0 3.5 0.00 0.08 0.00 68 1008.3
20260506073031 65 234 0.0 3.5 0.00 0.08 0.00 68 1008.3
20260506072524 65 236 0.0 2.6 0.00 0.08 0.00 68 1008.4
20260506072030 64 234 0.0 1.7 0.00 0.08 0.00 68 1008.5
20260506071517 64 235 0.0 5.2 0.00 0.08 0.00 68 1008.5
20260506071027 64 224 0.0 8.7 0.00 0.08 0.00 69 1008.4
20260506070513 63 221 1.7 8.7 0.00 0.08 0.00 70 1008.5
20260506062021 61 240 0.0 0.0 0.00 0.08 0.00 73 1009.0
20260506061517 61 240 0.0 0.9 0.00 0.08 0.00 72 1009.0
20260506061026 61 240 0.0 0.9 0.00 0.08 0.00 73 1009.0
20260506060531 60 240 0.0 4.3 0.00 0.08 0.00 73 1009.1
20260506051031 59 230 0.0 0.0 0.00 0.08 0.00 79 1009.5
20260506050518 59 230 0.0 0.0 0.00 0.08 0.00 79 1009.5
20260506045023 59 230 0.0 0.0 0.00 0.08 0.00 78 1009.5
20260506044534 59 230 0.0 0.0 0.00 0.08 0.00 77 1009.6
20260506044019 59 230 0.0 0.0 0.00 0.08 0.00 75 1009.5
20260506043526 60 230 0.0 0.0 0.00 0.08 0.00 75 1009.5
20260506043031 60 230 0.0 0.0 0.00 0.08 0.00 76 1009.5
20260506042522 60 230 0.0 0.0 0.00 0.08 0.00 74 1009.5
20260506042023 60 230 0.0 0.0 0.00 0.08 0.00 75 1009.5
20260506041529 61 230 0.0 0.0 0.00 0.08 0.00 73 1009.4
20260506041035 61 230 0.0 0.0 0.00 0.08 0.00 72 1009.4
20260506040523 61 230 0.0 0.0 0.00 0.08 0.00 71 1009.4
20260506040033 62 230 0.0 0.0 0.00 0.08 0.08 71 1009.5
20260506035533 62 230 0.0 0.0 0.00 0.08 0.08 69 1009.4
20260506035021 62 230 0.0 0.0 0.00 0.08 0.08 68 1009.4
20260506034514 63 230 0.0 0.0 0.00 0.08 0.08 68 1009.4
20260506034024 63 230 0.0 0.0 0.00 0.08 0.08 68 1009.4
20260506033519 63 230 0.0 0.0 0.00 0.08 0.08 66 1009.3
20260506033031 64 230 0.0 0.0 0.00 0.08 0.08 66 1009.3
20260506032533 64 231 0.0 0.0 0.00 0.08 0.08 63 1009.3
20260506032022 64 230 0.0 0.0 0.00 0.08 0.08 64 1009.3
20260506031514 64 230 0.0 0.0 0.00 0.08 0.08 64 1009.2
20260506031024 65 230 0.0 0.0 0.00 0.08 0.08 63 1009.2
20260506030531 65 230 0.0 4.3 0.00 0.08 0.08 63 1009.1
20260506030023 65 231 0.0 4.3 0.00 0.08 0.08 62 1009.2
20260506025531 65 201 0.0 0.0 0.00 0.08 0.08 61 1009.1
20260506025021 66 201 0.0 0.0 0.00 0.08 0.08 61 1009.2
20260506024515 66 201 0.0 0.0 0.00 0.08 0.08 61 1009.3
20260506024026 66 201 0.0 2.6 0.00 0.08 0.08 60 1009.3
20260506023517 66 201 0.0 4.3 0.00 0.08 0.08 59 1009.2
20260506023026 67 199 0.0 2.6 0.00 0.08 0.08 59 1009.2
20260506022514 67 198 0.0 3.5 0.00 0.08 0.08 60 1009.2
20260506022028 68 200 0.9 3.5 0.00 0.08 0.08 59 1009.2
20260506021518 69 191 0.9 2.6 0.00 0.08 0.08 56 1009.1
20260506021031 70 197 0.0 5.2 0.00 0.08 0.08 52 1009.0
20260506020520 70 196 1.7 5.2 0.00 0.08 0.08 51 1009.1
20260506020032 71 223 0.0 0.0 0.00 0.08 0.08 51 1009.1
20260506015526 71 225 0.0 0.0 0.00 0.08 0.08 51 1009.1
20260506015015 72 225 0.0 0.9 0.00 0.08 0.08 50 1009.1
20260506014527 72 225 0.0 1.7 0.00 0.08 0.08 48 1009.0
20260506014020 73 224 0.0 0.9 0.00 0.08 0.08 48 1009.0
20260506013531 73 224 0.0 4.3 0.00 0.08 0.08 48 1008.9
20260506013031 74 226 0.9 4.3 0.00 0.08 0.08 46 1008.9
20260506012526 74 191 0.0 2.6 0.00 0.08 0.08 46 1008.9
20260506012022 74 183 0.0 1.7 0.00 0.08 0.08 46 1008.7
20260506011520 74 182 0.0 4.3 0.00 0.08 0.08 46 1008.7
20260506011028 74 179 0.9 4.3 0.00 0.08 0.08 45 1008.6
20260506010519 75 212 0.0 4.3 0.00 0.08 0.08 46 1008.5
20260506010013 75 211 0.9 4.3 0.00 0.08 0.08 45 1008.4
20260506005527 75 196 0.9 4.3 0.00 0.08 0.08 44 1008.4
20260506005021 75 202 0.0 8.7 0.00 0.08 0.08 45 1008.3
20260506004518 75 205 1.7 8.7 0.00 0.08 0.08 44 1008.3
20260506004015 75 207 1.7 7.8 0.00 0.08 0.08 44 1008.2
20260506003529 75 241 1.7 6.1 0.00 0.08 0.08 44 1008.2
20260506003025 75 228 0.0 3.5 0.00 0.08 0.08 44 1008.2
20260506002519 75 222 0.0 4.3 0.00 0.08 0.08 44 1008.2
20260506002028 76 223 0.9 7.0 0.00 0.08 0.08 44 1008.2
20260506001520 76 250 1.7 7.8 0.00 0.08 0.08 43 1008.1
20260506001025 76 201 0.9 7.8 0.00 0.08 0.08 42 1008.0
20260506000514 77 207 0.9 8.7 0.00 0.08 0.08 42 1008.0
20260506000025 77 235 3.5 8.7 0.00 0.08 0.08 41 1007.9
20260505235517 78 139 0.0 7.0 0.00 0.08 0.08 41 1007.9
20260505235029 78 203 1.7 7.0 0.00 0.08 0.08 42 1007.8
20260505234519 78 184 0.9 7.0 0.00 0.08 0.08 42 1007.8
20260505234030 78 227 2.6 7.8 0.00 0.08 0.08 41 1007.8
20260505233520 78 225 0.9 10.4 0.00 0.08 0.08 42 1007.7
20260505233022 78 236 5.2 10.4 0.00 0.08 0.08 41 1007.7
20260505232533 78 195 1.7 9.6 0.00 0.08 0.08 42 1007.6
20260505232023 78 230 2.6 12.2 0.00 0.08 0.08 41 1007.6
20260505231530 78 170 2.6 12.2 0.00 0.08 0.08 41 1007.5
20260505231018 78 219 1.7 8.7 0.00 0.08 0.08 42 1007.6
20260505230530 78 219 0.9 15.6 0.00 0.08 0.08 42 1007.7
20260505230026 78 178 3.5 15.6 0.00 0.08 0.08 41 1007.5
20260505225518 78 225 0.9 7.8 0.00 0.08 0.08 42 1007.5
20260505225017 78 217 1.7 8.7 0.00 0.08 0.08 41 1007.5
20260505224531 79 246 2.6 8.7 0.00 0.08 0.08 41 1007.4
20260505224023 79 220 0.0 5.2 0.00 0.08 0.08 39 1007.3
20260505223518 79 215 1.7 8.7 0.00 0.08 0.08 38 1007.2
20260505223035 79 218 5.2 13.9 0.00 0.08 0.08 38 1007.2
20260505222523 79 226 6.1 13.9 0.00 0.08 0.08 38 1007.4
20260505222019 79 233 6.1 14.8 0.00 0.08 0.08 37 1007.3
20260505221513 79 213 2.6 16.5 0.00 0.08 0.08 37 1007.3
20260505221028 79 214 5.2 12.2 0.00 0.08 0.08 37 1007.1
20260505220520 79 240 5.2 13.9 0.00 0.08 0.08 38 1007.1
20260505220029 79 215 7.8 14.8 0.00 0.08 0.08 37 1007.0
20260505215521 79 255 5.2 10.4 0.00 0.08 0.08 38 1006.9
20260505215030 79 226 5.2 11.3 0.00 0.08 0.08 39 1007.0
20260505214522 79 231 0.9 7.0 0.00 0.08 0.08 41 1007.0
20260505214032 79 211 0.9 9.6 0.00 0.08 0.08 40 1007.0
20260505213028 79 220 1.7 11.3 0.00 0.08 0.08 42 1007.1
20260505212521 79 201 0.9 11.3 0.00 0.08 0.08 41 1007.2
20260505212029 79 226 0.9 19.1 0.00 0.08 0.08 42 1007.1
20260505211520 80 76 3.5 19.1 0.00 0.08 0.08 41 1007.0
20260505211032 80 188 8.7 19.1 0.00 0.08 0.08 39 1007.1
20260505210516 81 230 2.6 15.6 0.00 0.08 0.08 40 1007.0
20260505210027 82 230 3.5 15.6 0.00 0.08 0.08 39 1007.0
20260505205516 82 220 3.5 14.8 0.00 0.08 0.08 39 1007.0
20260505205027 82 223 6.1 13.0 0.00 0.08 0.08 38 1007.0
20260505204521 83 159 4.3 12.2 0.00 0.08 0.08 39 1006.9
20260505204030 83 210 4.3 17.4 0.00 0.08 0.08 39 1007.1
20260505203514 83 198 7.8 17.4 0.00 0.08 0.08 39 1007.0
20260505203027 83 237 4.3 13.0 0.00 0.08 0.08 40 1007.1
20260505202541 83 173 6.1 13.0 0.00 0.08 0.08 39 1007.0
20260505202021 83 227 1.7 16.5 0.00 0.08 0.08 40 1007.0
20260505201515 83 204 7.8 16.5 0.00 0.08 0.08 39 1006.9
20260505201024 83 149 1.7 16.5 0.00 0.08 0.08 39 1006.9
20260505200526 82 193 6.1 16.5 0.00 0.08 0.08 38 1007.0
20260505200035 82 220 1.7 17.4 0.00 0.08 0.08 39 1006.9
20260505195520 81 248 7.8 20.9 0.00 0.08 0.08 36 1007.0
20260505195027 82 226 7.8 22.6 0.00 0.08 0.08 36 1007.1
20260505194514 82 229 7.8 26.1 0.00 0.08 0.08 36 1007.3
20260505194021 81 243 7.0 20.0 0.00 0.08 0.08 37 1007.4
20260505193529 81 232 6.1 14.8 0.00 0.08 0.08 37 1007.6
20260505193018 81 217 7.0 20.9 0.00 0.08 0.08 38 1007.5
20260505192525 81 229 8.7 20.9 0.00 0.08 0.08 35 1007.6
20260505192032 82 247 6.1 18.2 0.00 0.08 0.08 37 1007.7
20260505191544 82 208 7.8 20.0 0.00 0.08 0.08 36 1007.6
20260505191015 82 248 11.3 20.0 0.00 0.08 0.08 34 1007.6
20260505190520 82 231 4.3 20.0 0.00 0.08 0.08 38 1007.5
20260505190015 82 217 8.7 16.5 0.00 0.08 0.08 36 1007.8
20260505180521 82 228 7.0 21.7 0.00 0.08 0.08 40 1008.3
20260505180035 81 211 6.1 12.2 0.00 0.08 0.08 41 1008.4
20260505175521 81 266 6.1 15.6 0.00 0.08 0.08 39 1008.4
20260505175028 81 230 7.8 13.0 0.00 0.08 0.08 40 1008.5
20260505174522 81 224 5.2 16.5 0.00 0.08 0.08 41 1008.6
20260505174015 80 242 5.2 20.9 0.00 0.08 0.08 40 1008.8
20260505173524 80 188 7.8 26.1 0.00 0.08 0.08 40 1008.8
20260505173014 79 153 10.4 26.1 0.00 0.08 0.08 39 1008.7
20260505172522 79 257 5.2 13.0 0.00 0.08 0.08 46 1008.7
20260505172029 78 205 3.5 11.3 0.00 0.08 0.08 47 1008.8
20260505171521 78 260 3.5 8.7 0.00 0.08 0.08 47 1008.9
20260505171023 78 234 4.3 13.0 0.00 0.08 0.08 47 1008.8
20260505170534 78 227 6.1 13.0 0.00 0.08 0.08 47 1008.9
20260505170023 78 240 4.3 11.3 0.00 0.08 0.08 47 1008.9
20260505165528 79 279 2.6 12.2 0.00 0.08 0.08 48 1008.9
20260505165017 79 259 4.3 12.2 0.00 0.08 0.08 49 1008.9
20260505164529 79 261 6.1 12.2 0.00 0.08 0.08 47 1009.0
20260505164019 78 250 6.1 10.4 0.00 0.08 0.08 50 1009.2
20260505163514 78 245 4.3 14.8 0.00 0.08 0.08 50 1009.4
20260505163020 78 265 6.1 18.2 0.00 0.08 0.08 49 1009.6
20260505162522 78 246 7.0 18.2 0.00 0.08 0.08 49 1009.6
20260505162026 78 214 6.1 13.9 0.00 0.08 0.08 50 1009.7
20260505161516 78 232 3.5 13.9 0.00 0.08 0.08 48 1009.7
20260505161024 78 241 4.3 12.2 0.00 0.08 0.08 52 1009.8
20260505160533 78 214 6.1 13.0 0.00 0.08 0.08 49 1009.8
20260505153028 76 263 3.5 11.3 0.00 0.08 0.08 53 1010.0
20260505152517 76 233 4.3 11.3 0.00 0.08 0.08 53 1010.1
20260505152024 75 241 1.7 7.8 0.00 0.08 0.08 54 1010.1
20260505151528 75 202 1.7 8.7 0.00 0.08 0.08 56 1010.1
20260505151015 74 239 3.5 8.7 0.00 0.08 0.08 57 1010.3
20260505150525 73 216 1.7 6.1 0.00 0.08 0.08 60 1010.3
20260505140528 68 340 0.0 0.0 0.00 0.08 0.08 75 1010.8